Location: Norton
(51.3000°N, 0.8167°E)
Time: 18:06:52
(UTC+00:00)

Resurs 1-3 - Pass Details

Date: 03 March 2021
Orbit: 629 x 633 km, 97.9° (Epoch: 13 April)

Event Time Altitude Azimuth Distance (km) Brightness Sun altitude
Exits shadow 19:38:48 42° 117° (ESE) 905 3.9 -19.1°
Maximum altitude 19:39:52 54° 70° (ENE) 777 3.7 -19.2°
Drops below altitude 10° 19:44:10 10° 354° (N) 2,030 6.4 -19.9°
Sets 19:46:25 0° 350° (N) 2,943 7.4 -20.2°
